Terminal Aerodrome Forecast
Issued by NWS Grand Junction, CO

Home | Current Version | Previous Version | Text Only | Print | Product List | Glossary On
Versions: 1 2 3 4 5 6 7 8 9 10 11 12 13 14 15 16 17 18 19 20 21 22 23 24
000
FTUS45 KGJT 291132
TAFGJT
TAF
KGJT 291132Z 2912/3012 12005KT P6SM FEW070 BKN200
     FM292100 35004KT P6SM SCT070 BKN150
     FM300100 09004KT P6SM BKN070 OVC110=

USA.gov is the U.S. government's official web portal to all federal, state and local government web resources and services.